Temperature
10 10 10 10 10 10 10 9 9 9 9 9 9 9 9 9 9 9 10 10 10 10 10 10 10 10 10 11 11 11 11 11 11 11 11 11 11 11
10 10 10 10 10 10 9 9 9 9 9 9 9 9 9 9 9 9 9 9 9 10 10 10 10 10 10 10 10 10 10 10 10 10 10 10 10 10
10 9 9 9 9 9 9 9 9 9 9 9 9 9 9 9 9 9 9 9 9 9 9 9 10 10 10 10 10 10 10 10 10 10 10 10 10 10
9 9 9 9 9 9 9 9 9 9 9 8 9 9 9 9 9 9 9 9 9 9 9 9 9 10 10 10 10 10 10 10 10 10 10 10 10 10
9 9 9 9 9 9 9 9 9 9 8 8 8 8 8 8 8 9 9 9 9 9 9 9 9 9 9 9 10 10 10 10 10 10 10 10 10 10
8 8 8 8 8 8 8 8 8 8 8 8 8 8 8 8 8 8 9 9 9 9 9 9 9 9 9 9 9 10 9 9 10 10 10 10 10 9
8 8 8 8 8 8 8 8 8 8 8 8 8 8 8 8 8 8 8 8 8 8 9 9 9 9 9 9 9 9 9 9 9 9 9 9 9 9
8 8 8 8 8 8 8 8 8 8 8 8 8 8 8 8 8 8 8 8 8 8 8 8 8 9 9 9 9 9 9 9 9 9 9 9 9 9
7 7 8 8 8 8 8 8 8 7 7 7 7 8 8 8 7 7 8 7 8 8 8 8 8 8 8 8 8 8 9 9 9 9 9 9 9 9
7 7 7 7 7 7 7 7 7 7 7 7 7 7 7 7 7 7 7 7 7 8 8 8 8 8 8 8 8 8 8 8 8 8 8 8 8 8
7 7 7 7 7 7 7 7 7 7 7 7 7 7 7 7 7 7 7 7 7 7 7 7 7 8 8 8 8 8 8 8 8 8 8 8 8 8
7 7 7 7 7 7 7 7 7 7 7 7 7 7 7 7 7 7 7 7 7 7 7 7 7 7 7 7 7 7 7 7 7 7 7 8 8 8
6 6 6 6 6 6 6 6 6 7 7 7 6 6 6 6 6 6 6 6 6 6 6 6 7 7 6 6 7 7 7 7 7 7 7 7 7 7
6 6 6 6 6 6 6 6 6 6 6 6 6 6 6 6 6 6 6 6 6 6 6 6 6 6 6 6 6 7 7 7 7 7 7 7 7 7
5 5 5 5 5 5 5 5 5 5 6 6 6 6 6 6 6 6 6 6 6 6 6 6 6 6 6 5 6 6 6 6 6 6 6 6 6 6
5 5 5 5 5 5 5 5 5 5 5 5 5 5 5 5 5 5 5 5 6 6 6 6 5 5 5 5 5 5 5 5 6 6 6 6 6 6
5 5 5 5 5 5 5 4 4 4 5 5 5 5 5 5 5 5 5 5 5 5 5 5 5 5 5 5 5 5 5 5 5 5 5 5 6 6
4 4 4 4 4 4 4 4 4 4 4 4 4 4 4 4 4 4 4 4 4 4 4 4 5 5 5 5 4 4 4 4 4 4 4 5 5 5
4 4 4 4 4 4 4 4 4 4 4 4 4 4 4 4 4 4 4 4 4 4 4 4 4 4 3 3 4 4 4 4 4 4 4 4 4 5
4 4 4 3 3 3 3 3 3 3 3 4 3 3 4 4 4 4 3 3 3 3 3 3 3 3 3 3 3 3 3 3 3 3 4 4 4 4
3 3 3 3 3 3 3 3 3 3 3 3 3 3 3 3 3 3 3 3 3 3 3 3 3 2 2 2 3 3 3 3 3 3 3 3 3 4
3 3 3 3 3 3 3 3 3 3 3 3 3 3 3 3 3 3 2 2 2 2 2 2 2 2 2 2 2 2 3 3 3 2 2 2 2 3
3 3 3 3 3 3 3 3 2 2 3 3 3 2 2 2 2 2 2 2 2 2 2 2 2 2 2 2 2 2 2 2 2 2 2 2 2 2
Wind_Speed
1 0 0 1 1 1 1 2 2 0 2 2 2 2 3 3 4 4 4 5 6 6 7 7 6 6 5 5 4 3 3 3 2 3 3 3 3 3
0 0 1 1 1 1 1 1 2 2 2 2 2 2 2 2 4 4 4 5 6 6 6 6 6 5 5 4 4 3 3 3 3 2 2 3 3 3
1 1 2 1 1 1 0 0 1 2 2 2 1 2 1 2 3 4 4 4 4 6 6 6 6 5 5 4 4 3 2 3 3 3 2 2 3 3
2 1 2 1 1 1 0 1 1 2 2 2 2 1 1 2 2 2 3 3 3 5 6 6 6 5 5 4 3 3 2 2 2 2 1 2 2 2
1 1 2 1 1 2 1 1 1 1 1 1 2 1 1 2 2 2 2 2 3 4 5 5 5 5 4 3 3 3 2 1 0 1 1 2 2 1
1 1 1 1 2 2 1 1 1 0 0 0 1 1 1 2 1 1 2 2 2 3 4 4 4 5 4 3 3 2 2 2 1 0 1 1 1 1
2 2 2 2 3 2 2 1 0 1 0 0 1 1 1 1 1 1 2 3 2 1 2 3 3 3 3 4 4 2 2 1 1 1 2 2 1 1
2 3 3 3 4 4 4 2 1 1 1 1 2 2 3 2 1 1 1 1 2 1 1 3 1 2 3 3 3 2 2 2 2 2 2 2 2 2
1 2 3 3 4 2 3 3 2 2 2 2 2 3 3 3 2 2 2 2 3 2 1 2 1 2 3 4 4 3 2 3 3 3 3 3 3 3
1 1 2 3 3 3 2 2 2 3 3 2 3 4 3 3 3 3 3 2 2 1 1 1 1 2 3 4 4 3 3 3 3 4 4 3 3 3
2 2 2 2 5 4 1 2 3 4 4 4 4 4 4 3 1 0 1 1 2 2 1 1 1 1 2 2 3 4 3 3 4 4 4 4 3 3
2 3 4 4 5 4 1 1 2 4 4 3 3 4 3 3 2 1 2 2 1 2 1 1 1 1 2 2 2 3 3 3 4 4 4 4 4 3
1 2 3 5 5 4 3 1 3 3 2 1 2 2 3 3 3 2 2 2 2 3 2 2 1 1 1 2 2 2 2 2 2 2 3 4 4 4
1 2 2 4 4 4 3 4 4 3 2 2 2 2 3 3 3 4 3 3 3 3 2 3 2 2 2 1 2 2 2 2 1 1 2 2 3 4
2 3 3 3 3 3 4 5 4 2 2 2 2 2 2 3 3 3 3 3 3 3 3 2 2 2 2 2 2 2 2 2 1 1 1 1 1 1
2 2 3 3 3 4 4 3 2 1 1 1 1 2 2 2 2 2 2 3 2 3 4 3 2 2 2 3 3 3 2 2 2 2 1 1 2 2
1 1 2 2 2 2 2 2 2 2 2 1 1 2 2 2 2 2 2 2 1 2 3 3 3 2 2 2 2 3 2 2 2 2 1 2 2 2
2 0 1 1 1 2 2 2 2 2 2 2 2 2 2 2 2 2 1 1 2 2 3 2 2 2 2 2 3 3 2 2 2 2 2 2 3 3
1 1 1 2 2 2 2 2 3 3 2 2 2 2 2 2 2 2 2 2 2 3 3 2 1 1 2 4 3 3 2 3 2 2 2 3 3 4
1 2 3 3 3 3 3 3 3 2 2 2 3 3 2 2 3 2 2 3 3 3 3 2 2 2 3 4 3 3 4 3 2 3 3 3 3 4
2 3 3 3 3 3 3 3 3 3 3 3 3 3 3 3 3 3 3 4 3 3 3 4 5 5 2 1 3 4 3 5 4 3 2 3 3 2
3 3 3 3 3 3 3 3 3 3 3 3 3 3 3 3 4 4 3 3 3 3 4 4 3 2 1 3 4 4 4 3 4 5 4 4 2 2
4 4 4 3 3 3 3 3 3 3 3 4 4 4 3 4 4 4 4 4 3 4 3 3 3 2 3 4 4 4 4 4 3 3 3 5 6 7
Wind_Direction
235 205 298 279 268 246 201 191 168 247 289 284 297 309 314 315 331 345 341 341 349 357 6 8 6 5 5 11 11 22 50 49 46 53 58 51 41 47
222 337 309 303 311 300 230 213 175 179 232 266 258 289 305 327 334 339 334 338 341 352 360 359 356 358 2 3 3 13 43 44 46 53 60 70 62 60
337 331 307 311 314 319 321 186 184 167 212 279 280 301 302 320 334 335 331 330 333 341 344 346 347 351 356 358 355 8 38 45 40 39 55 82 80 66
304 309 300 325 317 308 272 245 238 205 191 252 284 309 306 314 315 313 324 329 324 328 331 333 337 339 341 343 350 1 358 38 43 23 44 93 99 88
298 295 300 333 310 301 286 267 254 252 208 212 275 304 321 330 331 318 328 329 322 324 327 325 331 334 327 335 341 345 334 326 355 19 57 123 109 103
327 312 310 286 279 283 288 267 245 213 174 227 297 305 299 309 332 323 330 324 317 330 328 328 331 329 332 338 334 323 309 285 257 162 139 128 114 134
346 327 312 308 308 310 312 282 216 163 159 283 286 296 293 318 301 285 307 317 311 323 336 334 333 335 328 322 320 307 285 250 208 178 164 154 140 130
329 320 312 319 326 331 322 316 292 188 214 229 253 266 272 263 253 270 279 328 310 325 341 313 346 313 309 310 303 289 272 255 225 211 201 191 186 178
303 315 326 332 337 336 341 346 320 299 268 237 249 257 251 247 230 244 238 245 259 288 330 297 328 298 300 300 292 283 270 263 247 233 223 215 209 196
307 302 306 319 327 343 0 357 334 313 289 271 247 251 255 242 226 226 224 244 280 284 199 270 305 284 306 305 296 288 277 261 251 240 230 220 212 203
315 330 325 309 321 343 11 342 332 325 329 319 309 301 297 295 276 107 161 186 278 281 220 226 276 295 307 309 311 308 291 271 259 245 236 227 223 215
324 324 331 333 337 348 357 324 313 311 329 343 350 347 347 337 322 265 206 211 237 266 236 205 247 305 314 304 322 324 310 288 278 255 244 237 223 200
304 320 316 330 339 342 347 327 299 316 332 347 348 358 7 2 349 329 291 232 228 242 227 194 215 215 238 290 311 312 309 306 300 270 265 253 231 202
271 284 302 331 347 352 351 349 358 15 35 34 23 2 350 339 331 328 317 288 258 252 249 194 205 207 208 250 278 308 323 311 295 280 290 272 239 225
285 308 328 349 2 356 349 1 15 29 38 25 348 323 313 307 326 341 344 341 331 321 308 228 214 222 218 233 260 275 306 307 291 288 290 263 246 229
329 339 357 4 13 358 355 354 360 358 11 318 305 307 323 332 338 343 342 342 344 335 343 338 287 233 237 253 252 272 272 276 313 313 298 296 289 250
48 25 22 14 3 352 345 341 344 349 334 322 311 317 322 327 327 337 348 357 340 323 329 345 351 327 258 238 249 264 278 289 293 314 318 305 294 278
91 52 321 309 301 302 308 311 314 307 299 293 284 281 290 292 303 323 330 327 307 304 308 324 352 1 349 306 238 256 277 283 294 302 293 283 288 292
117 237 263 268 270 275 277 278 284 287 283 281 278 276 283 289 292 293 294 291 285 286 292 300 322 331 306 301 292 240 261 290 302 294 277 258 263 278
257 253 260 266 270 268 271 277 283 291 290 282 280 276 272 276 284 280 276 277 274 281 290 291 274 257 256 271 281 286 258 258 273 279 291 287 280 283
255 261 265 267 269 269 272 270 269 273 278 276 274 276 270 269 273 273 273 281 279 279 283 284 280 285 274 279 288 296 292 269 259 270 282 291 297 293
250 254 261 264 262 261 267 275 279 275 273 268 268 268 267 264 262 265 267 271 267 267 275 284 292 299 273 264 274 282 294 302 293 282 271 255 255 249
252 255 258 262 260 261 261 265 271 279 275 269 269 267 266 266 264 260 260 261 265 269 277 288 296 287 270 263 274 281 286 296 305 310 300 292 275 277
Height
1524 1523 1523 1522 1521 1521 1520 1518 1518 1515 1514 1514 1514 1513 1513 1512 1511 1510 1510 1509 1508 1507 1507 1506 1505 1505 1504 1504 1503 1504 1504 1505 1506 1506 1506 1507 1507 1508
1522 1521 1521 1520 1520 1519 1518 1517 1516 1515 1514 1513 1513 1512 1511 1511 1510 1509 1509 1508 1507 1506 1506 1505 1505 1504 1504 1503 1503 1504 1504 1505 1505 1505 1506 1506 1506 1507
1520 1519 1519 1518 1518 1517 1516 1516 1515 1514 1512 1512 1512 1511 1510 1509 1508 1508 1507 1507 1506 1505 1504 1504 1503 1503 1503 1503 1503 1503 1504 1504 1504 1504 1505 1506 1506 1506
1518 1518 1517 1517 1516 1515 1515 1514 1513 1513 1512 1510 1510 1509 1508 1508 1507 1507 1506 1505 1504 1504 1503 1503 1502 1502 1501 1502 1502 1502 1503 1503 1503 1504 1504 1505 1505 1505
1516 1516 1515 1515 1514 1513 1513 1512 1512 1511 1510 1509 1508 1508 1507 1507 1506 1505 1505 1504 1503 1503 1502 1501 1501 1501 1500 1500 1500 1501 1501 1502 1502 1502 1503 1503 1504 1504
1515 1514 1514 1513 1512 1511 1511 1510 1509 1509 1508 1507 1506 1506 1506 1505 1504 1503 1502 1502 1502 1502 1501 1500 1500 1499 1499 1499 1499 1499 1500 1500 1501 1501 1501 1502 1502 1503
1513 1512 1512 1511 1510 1510 1509 1508 1507 1507 1506 1506 1505 1504 1504 1503 1503 1502 1501 1501 1500 1500 1499 1499 1498 1498 1498 1498 1498 1498 1498 1498 1498 1499 1499 1500 1500 1501
1511 1510 1510 1509 1508 1508 1507 1507 1506 1506 1505 1504 1503 1502 1502 1502 1501 1501 1500 1499 1498 1499 1498 1497 1497 1496 1496 1496 1496 1496 1496 1496 1496 1497 1497 1498 1498 1499
1509 1508 1508 1507 1506 1506 1505 1504 1504 1504 1504 1503 1501 1501 1500 1500 1500 1499 1498 1498 1497 1497 1496 1495 1495 1494 1494 1494 1494 1493 1493 1493 1494 1494 1495 1495 1496 1497
1507 1507 1506 1505 1505 1504 1503 1503 1502 1501 1501 1500 1500 1499 1499 1498 1498 1497 1497 1496 1495 1495 1494 1493 1492 1492 1492 1492 1491 1491 1491 1491 1491 1491 1492 1492 1493 1494
1505 1505 1504 1504 1503 1503 1502 1500 1500 1499 1499 1498 1498 1497 1497 1496 1496 1495 1494 1493 1492 1492 1492 1491 1490 1490 1489 1489 1489 1489 1489 1488 1488 1488 1489 1489 1490 1491
1503 1502 1502 1501 1501 1500 1499 1498 1497 1496 1496 1496 1495 1495 1495 1494 1494 1493 1492 1491 1490 1489 1489 1489 1488 1487 1487 1487 1487 1486 1486 1486 1486 1486 1486 1487 1487 1487
1501 1500 1499 1499 1499 1498 1497 1496 1496 1495 1494 1493 1493 1492 1492 1492 1491 1490 1490 1489 1488 1487 1487 1487 1486 1485 1485 1483 1483 1484 1483 1483 1483 1483 1483 1483 1484 1484
1499 1498 1497 1497 1496 1496 1495 1494 1494 1493 1492 1491 1491 1490 1490 1489 1488 1488 1487 1486 1486 1485 1484 1484 1483 1482 1482 1480 1480 1480 1480 1480 1479 1479 1480 1480 1480 1481
1497 1496 1495 1495 1494 1493 1492 1492 1491 1490 1490 1489 1489 1488 1488 1487 1486 1485 1485 1484 1483 1482 1482 1481 1480 1479 1479 1478 1477 1477 1476 1476 1476 1476 1476 1476 1476 1476
1494 1493 1493 1492 1492 1491 1490 1489 1489 1488 1488 1487 1487 1486 1486 1485 1484 1483 1482 1481 1480 1479 1479 1478 1477 1476 1475 1475 1474 1473 1473 1473 1472 1472 1472 1472 1473 1473
1492 1491 1490 1489 1488 1488 1487 1487 1486 1486 1485 1485 1484 1483 1483 1482 1481 1480 1479 1478 1477 1476 1475 1474 1474 1473 1472 1471 1470 1470 1469 1469 1469 1468 1468 1468 1468 1469
1489 1488 1487 1487 1486 1485 1485 1484 1484 1483 1483 1482 1482 1481 1480 1479 1478 1478 1477 1476 1474 1473 1472 1471 1470 1469 1469 1468 1468 1466 1466 1465 1465 1465 1464 1464 1463 1464
1486 1485 1485 1484 1483 1483 1482 1481 1481 1480 1480 1480 1479 1478 1477 1476 1476 1475 1474 1473 1471 1470 1469 1468 1467 1466 1465 1464 1464 1464 1463 1462 1461 1461 1461 1460 1460 1460
1482 1482 1481 1481 1480 1480 1479 1478 1478 1477 1477 1476 1476 1475 1474 1473 1472 1471 1470 1469 1468 1467 1466 1465 1464 1463 1462 1462 1460 1460 1460 1459 1458 1457 1457 1456 1456 1456
1479 1479 1478 1478 1477 1477 1476 1475 1475 1474 1473 1472 1472 1471 1470 1469 1468 1467 1466 1466 1465 1464 1462 1462 1461 1461 1460 1459 1457 1456 1456 1456 1455 1454 1453 1453 1452 1451
1475 1475 1475 1474 1474 1473 1472 1472 1471 1470 1469 1468 1467 1467 1466 1465 1464 1463 1462 1461 1460 1460 1459 1458 1458 1457 1456 1455 1453 1452 1452 1452 1451 1451 1451 1450 1449 1448
1471 1471 1471 1470 1470 1469 1468 1468 1466 1465 1464 1463 1463 1462 1461 1460 1460 1459 1458 1457 1456 1456 1455 1454 1453 1453 1452 1451 1450 1449 1448 1447 1447 1446 1447 1447 1447 1446